www.pogodaiklimat.ru

Погода и климат >> Архив погоды >> Россия >> Забайкальский край >> Тунгокочен


ПОГОДА в Тунгокочене

  • Прогноз погоды в Тунгокочене
  • Монитор погоды в Тунгокочене

АРХИВ ПОГОДЫ в Тунгокочене

Время (UTC), дата Ветер
(напр.,м/с)
 
Видим.   Явления Облачность Т
(С)
Тd
(С)
f
(%)
Тe
(С)
Тes
(С)
Комфортность P
(гПа)
Po
(гПа)
Тmin
(С)
Tmax
(С)
R
(мм)
R24
(мм)
S
(см)
09 13.09 З 4
{11}
50 км 4/3 1000 м
[Cb cap Ci fib]
+13.2 -6.9 24 +12 +13 1006.5 914.5
12 13.09 штиль 0 н/о 1/0
[Ac lent]
+2.5 -3.9 63 +2 +2 1011.6 915.8 +14.3
15 13.09 штиль 0 н/о 1/0
[Ac lent]
-3.7 -5.8 85 -5 -5 1014.9 916.7
18 13.09 штиль 0 н/о 3/0
[Ci fib]
-5.5 -5.9 97 -7 -7 1014.9 916.1
21 13.09 С 2 н/о 9/0
[Ac lent]
-3.9 -4.1 99 -8 -8 1013.3 915.2
00 14.09 штиль 0 50 км 9/4 1000 м
[Sc Ac trans]
+1.4 -2.6 75 +1 +1 1011.1 915.0 -5.9
03 14.09 ЮЗ 2 50 км 10/3 1000 м
[Sc As trans]
+8.4 +0.4 57 +7 +9 1007.1 913.7
06 14.09 ЮЗ 4 50 км {дождь} 9/8 1000 м
[Cb cap Ci]
+9.2 +2.3 62 +7 +7 1004.5 911.6
09 14.09 З 6-10
{14}
10 км слаб. ливневой дождь 10/10 600 м
[Cb cap]
+5.2 +2.4 82 0 0 1006.2 911.9
12 14.09 Ю 2
{10}
н/о {ливн. осадки} 10/4 1000 м
[Sc Ac lent Ci sp]
+3.7 +1.9 88 +1 +1 1005.1 910.4 +12.2 1
15 14.09 З 3 н/о 1/1 1000 м
[Sc]
+4.0 -1.5 67 +1 +1 1005.1 910.4
18 14.09 З 7
{12}
н/о 9/0
[Ac und]
+9.3 +7 +7 1007.3 911.6
21 14.09 З 5 н/о 10/0
[Ac lent Ci fib]
-1.2 -11.4 46 -7 -7 1009.0 912.2
00 15.09 СЗ 8-14
{15}
50 км 6/1 1000 м
[Cu hum Ac lent Ci fib]
-0.0 -10.2 46 -7 -7 1010.4 913.9
03 15.09 СЗ 6-12
{17}
50 км 4/4 1000 м
[Cu hum]
+3.1 -13.3 29 -2 0 1010.9 915.3
06 15.09 СЗ 6
{12}
50 км 6/6 1000 м
[Cu hum]
+6.5 -10.1 29 +3 +4 1009.1 914.8
09 15.09 СЗ 5-10
{13}
50 км 3/3 1000 м
[Cu hum]
+7.3 -12.2 24 +4 +5 1010.2 916.0
12 15.09 З 2 н/о 3/0
[Ac lent]
+3.5 -11.1 33 +2 +2 1012.7 917.1 +8.0
15 15.09 штиль 0 н/о 1/0
[Ac lent]
-5.1 -8.3 78 -6 -6 1016.2 917.4
18 15.09 штиль 0 н/о 1/0
[Ac lent]
-6.9 -9.4 82 -8 -8 1016.3 916.8
21 15.09 штиль 0 н/о 1/0
[Ac lent]
-7.4 -9.1 88 -8 -8 1016.6 916.9
00 16.09 штиль 0 50 км 4/0
[Ac trans Ci sp]
-1.5 -7.1 66 -2 -1 1014.1 916.7 -9.2
03 16.09 Ю 2 50 км 9/4 1000 м
[Sc Ac lent Ci sp]
+7.1 -3.1 48 +6 +8 1009.1 915.1
06 16.09 ЮЗ 4 50 км 10/6 1000 м
[Cb cap Ci sp]
+9.5 -1.3 47 +7 +9 1005.1 912.2
09 16.09 СЗ 2 4000 м слаб. дождь 10/0
[As op]
+3.1 +1.7 91 0 0 1008.9 913.6
12 16.09 З 1 н/о {дождь} 10/3 1000 м
[Sc As op]
+2.1 +1.5 96 0 0 1010.0 914.3 +10.3 7
15 16.09 С 3 н/о 10/5 1000 м
[Sc As op]
+1.6 +1.0 96 -3 -3 1012.2 916.1
18 16.09 СЗ 7 н/о {снег, дождь} 8/5 1000 м
[Cb cap Ci fib]
+1.1 -1.8 81 -6 -6 1013.4 917.0
21 16.09 СЗ 5 н/о 6/3 1000 м
[Sc Ac trans]
-0.5 -4.6 74 -6 -6 1017.1 919.8
00 17.09 С 3 50 км 3/1 1000 м
[Sc Ci fib]
+1.9 -4.8 61 -2 -1 1020.5 923.7 -1.0 1
03 17.09 С 5
{11}
50 км 6/3 1000 м
[Sc diur, vesp Ci]
+4.9 -6.5 43 +1 +3 1020.9 925.0
06 17.09 С 6 50 км 9/9 1000 м
[Sc]
+5.9 -7.6 37 +2 +2 1020.0 924.5
09 17.09 С 4 50 км 6/6 1000 м
[Sc diur, vesp]
+6.3 -8.4 34 +3 +4 1020.0 924.6
12 17.09 штиль 0 н/о 3/3 1000 м
[Sc diur, vesp]
-1.0 -5.4 72 -2 -2 1023.6 925.5 +6.8
15 17.09 В 2 н/о ясно -4.3 -7.1 81 -8 -8 1025.8 926.3
18 17.09 штиль 0 н/о ясно -7.8 -9.2 90 -9 -9 1028.2 927.2
21 17.09 С 1 н/о 1/0
[Ac lent]
-9.0 -10.1 92 -11 -11 1028.6 927.2
00 18.09 штиль 0 50 км 9/9 1000 м
[Sc]
-3.6 -6.3 82 -5 -4 1026.3 927.0 -9.2
03 18.09 штиль 0 50 км ?/? -3.2 -5.3 85 1020.0 924.6
06 18.09 З 3 50 км 4/0
[Ci]
+13.0 +2.9 50 +12 +17 1015.0 922.3
09 18.09 ЮЗ 1 50 км 10/0
[Ac lent Ci fib]
+14.0 -0.9 36 +15 +15 1013.5 921.2
12 18.09 СЗ 1 н/о 10/0
[Ac lent Ci fib]
+2.4 -0.4 82 +1 +1 1017.3 921.0 +14.8
15 18.09 н/о -0.6 1017.2 920.5
18 18.09 С 1 н/о 6/0
[Ci fib]
-2.5 -3.3 94 -5 -5 1018.7 920.6
21 18.09 штиль 0 н/о 6/0
[Ci fib]
-4.1 -5.0 93 -5 -5 1019.0 919.3
00 19.09 Ю 1 50 км 10/0
[Ac lent Ci]
+2.2 -1.0 79 +1 +2 1016.3 920.0 -4.9
03 19.09 З 2 50 км 10/0
[Ac As]
+11.6 +1.6 50 +11 +13 1012.1 919.2
06 19.09 З 4 50 км 10/5 1000 м
[Sc diur, vesp Ac trans Cs]
+13.4 +2.8 49 +12 +13 1010.7 918.6
09 19.09 СЗ 3
{13}
50 км 10/4 1000 м
[Sc Ac trans Ci]
+15.0 -2.7 29 +15 +15 1010.4 918.7
12 19.09 З 1 н/о 3/3 1000 м
[Sc diur, vesp]
+7.7 -3.1 46 +7 +7 1014.7 920.3 +16.5
15 19.09 штиль 0 н/о 3/0
[Ac lent]
-0.3 -3.5 79 -1 -1 1019.5 922.0
18 19.09 штиль 0 н/о 10/0
[Ac lent Ci fib]
+0.1 -2.3 84 -1 -1 1020.1 922.7
21 19.09 штиль 0 н/о 3/0
[Ac lent]
-1.0 -3.0 86 -2 -2 1022.1 924.1
00 20.09 СВ 1 50 км 3/0
[Ci fib]
+2.7 -1.3 75 +1 +3 1023.3 926.5 -2.7
03 20.09 Ю 2 50 км 6/6 1000 м
[Cu hum]
+10.6 +0.1 48 +10 +12 1020.7 926.8
06 20.09 С 1 50 км 6/4 1000 м
[Cu hum Ci fib]
+13.4 -4.1 29 +14 +18 1018.8 925.8

 

Местоположение метеостанции Тунгокочен (Забайкальский край, Россия): широта 53.53 долгота 115.60 высота над уровнем моря 811 м.

В архиве по умолчанию представлена погода в Тунгокочене за последнюю неделю. Архивные данные за месяц целиком и за предыдущие месяцы, начиная с января 2011 года, Вы можете получить, выбрав интересующий диапазон дат из раскрывающегося списка и нажав кнопку "Ввод!".


*Определитесь, кто Вы:
робот инопланетянин человек

Внимание! Время в таблицах - всемирное. Для получения местного времени необходимо прибавить поправку, которая равна 9 ч.

Смотрите также архив погоды в соседних городах и на ближайших метеорологических станциях:

Погода в Усугли (Забайкальский край, Россия) (103 км)
Погода в Усть-Каренге (Забайкальский край, Россия) (116 км)
Погода в Чернышевске (Забайкальский край, Россия) (145 км)
Погода в Багдарине (Бурятия, Россия) (170 км)
Погода в Бургени (Забайкальский край, Россия) (177 км)
Погода в Телембе (Бурятия, Россия) (177 км)
Погода в Нерчинске (Забайкальский край, Россия) (181 км)
Погода в Шилке (Забайкальский край, Россия) (187 км)
Погода в Романовке (Бурятия, Россия) (196 км)
Погода в Троицком Прииске (Бурятия, Россия) (201 км)

Пояснения к столбцам:

Ветер - указаны скорость ветра в м/с - средняя за 10 мин, порывы в срок и между сроками (в фигурных скобках) и направление, откуда дует ветер: С - северный, СВ - северо-восточный, В - восточный, ЮВ - юго-восточный, Ю - южный, ЮЗ - юго-западный, З - западный, СЗ - северо-западный.
Видимость - горизонтальная дальность видимости в метрах или километрах. При видимости от 1 до 10 км при отсутствии осадков обычно наблюдается дымка, при ухудшении видимости до 1 км и менее - туман. В сухую погоду видимость может ухудшаться дымом, пылью или мглою.
Явления - указаны атмосферные явления, наблюдавшиеся в срок или в последний час перед сроком; фигурными скобками обозначены явления, наблюдавшиеся между сроками (за 1-3 часа до срока); квадратными скобками обозначены град или гололедные отложения с указанием их диаметра в мм.
Облачность - указаны через наклонную черту общая и нижняя облачность в баллах и высота нижней границы облаков в метрах; квадратными скобками обозначены формы облаков: Ci - перистые, Cs - перисто-слоистые, Cc - перисто-кучевые, Ac - высококучевые, As - высокослоистые, Sc - слоисто-кучевые, Ns - слоисто-дождевые, Cu - кучевые, Cb - кучево-дождевые. Подробнее классификацию облаков см. в Атласе облаков (PDF).
T - Температура воздуха - температура, измеренная на высоте 2 м над землей.
Td - Температура точки росы - температура, при понижении до которой содержащийся в воздухе водяной пар достигнет насыщения.
f - Относительная влажность воздуха - влажноcть воздуха, измеренная на высоте 2 м над землей.
Te - Эффективная температура - температура, которую ощущает одетый по сезону человек в тени. Характеристика душности погоды. При расчете учитывается влияние влажности воздуха и скорости ветра на теплоощущения человека.
Tes - Эффективная температура на солнце - температура, которую ощущает человек, с поправкой на солнечный нагрев. Характеристика знойности погоды. Зависит от высоты солнца над горизонтом, облачности и скорости ветра. Ночью, в пасмурную погоду, а также при ветре 12 м/с и более поправка равна нулю.
P - Атмосферное давление - приведенное к уровню моря атмосферное давление.
Po - Атмосферное давление - измеренное на уровне метеостанции атмосферное давление.
Tmin - Минимальная температура - минимум температуры воздуха на высоте 2 м над землей.
Tmax - Максимальная температура - максимум температуры воздуха на высоте 2 м над землей.
R - Количество осадков - Количество выпавших осадков за период времени, мм. При наведении курсора мыши на число - период времени, за который выпало указанное количество осадков.
R24 - Количество осадков - Количество выпавших осадков за 24 часа, мм.
S - Снежный покров - Высота снежного покрова, см. При наведении курсора мыши на число - состояние снежного покрова и степень покрытия местности в баллах.